This is the latest recevied weather packets stored in our database for station/object WD7OO. If no packets are shown the sender has not sent any weather packets the latest 10 day(s).
| Time | Temp. | Humidity | Pressure | Rain* | Wind** | Luminosity | Snow |
|---|---|---|---|---|---|---|---|
| 1787851180 | 25.56° C | 70% | 1016.7 hPa | 0 mm | - | 740 W/m² | - |
| 1787850876 | 26.11° C | 70% | 1017 hPa | 0 mm | - | 722 W/m² | - |
| 1787850572 | 26.11° C | 69% | 1016.8 hPa | 0 mm | - | 753 W/m² | - |
| 1787850272 | 25.56° C | 71% | 1016.8 hPa | 0 mm | - | 728 W/m² | - |
| 1787849973 | 25° C | 74% | 1016.7 hPa | 0 mm | - | 696 W/m² | - |
| 1787849661 | 25.56° C | 71% | 1016.8 hPa | 0 mm | - | 227 W/m² | - |
| 1787849355 | 25.56° C | 75% | 1016.8 hPa | 0 mm | - | 820 W/m² | - |
| 1787849055 | 24.44° C | 76% | 1016.7 hPa | 0 mm | - | 215 W/m² | - |
| 1787848749 | 24.44° C | 75% | 1016.9 hPa | 0 mm | - | 184 W/m² | - |
| 1787848443 | 25° C | 73% | 1016.6 hPa | 0 mm | - | 253 W/m² | - |
| 1787848138 | 25° C | 72% | 1016.9 hPa | 0 mm | - | 221 W/m² | - |
| 1787847838 | 25° C | 72% | 1016.8 hPa | 0 mm | - | 360 W/m² | - |
| 1787847533 | 25.56° C | 71% | 1016.8 hPa | 0 mm | - | 781 W/m² | - |
| 1787847229 | 25.56° C | 72% | 1016.7 hPa | 0 mm | - | 751 W/m² | - |
| 1787846926 | 25° C | 72% | 1016.9 hPa | 0 mm | - | 773 W/m² | - |
| 1787846625 | 25° C | 76% | 1016.9 hPa | 0 mm | - | 799 W/m² | - |
| 1787846319 | 25° C | 75% | 1016.9 hPa | 0 mm | - | 766 W/m² | - |
| 1787846016 | 25° C | 75% | 1016.8 hPa | 0 mm | - | 813 W/m² | - |
| 1787845712 | 24.44° C | 75% | 1016.7 hPa | 0 mm | - | 771 W/m² | - |
| 1787845411 | 24.44° C | 74% | 1016.8 hPa | 0 mm | - | 147 W/m² | - |
| 1787845107 | 25° C | 75% | 1016.6 hPa | 0 mm | - | 678 W/m² | - |
| 1787844803 | 24.44° C | 78% | 1016.6 hPa | 0 mm | - | 705 W/m² | - |
| 1787844502 | 24.44° C | 76% | 1016.6 hPa | 0 mm | - | 668 W/m² | - |
| 1787844197 | 23.89° C | 77% | 1016.8 hPa | 0 mm | - | 676 W/m² | - |
| 1787843896 | 24.44° C | 75% | 1016.6 hPa | 0 mm | - | 246 W/m² | - |
* Rain latest hour (hover to see other rain measurements)
** Current wind speed in m/s (hover to see current wind gust speed)